This demonstration page uses our WeatherBlox Daily Observations layout. Learn more.

Left ArrowRight Arrow

38.83388, -104.82136

Hourly Observations for May 5, 2018

Temp ( °F °C ) Dew Point ( °F °C ) Humidity (%) Winds ( mph kmh ) Pressure ( in mb ) Visibility ( mi km ) Precip ( " mm )
12:58 am 00:58 Clear 53 11.9 20 -6.5 27 27 SW 8 13 29.87 1011 10 16 0.00 0.00
1:58 am 01:58 Clear 53 11.9 19 -7.1 26 26 SW 9 15 29.87 1012 10 16 0.00 0.00
2:58 am 02:58 Clear 52 11.1 20 -6.8 28 28 NW 10 17 29.85 1011 10 16 0.00 0.00
3:58 am 03:58 Clear 49 9.6 22 -5.7 34 34 WNW 5 7 29.86 1011 10 16 0.00 0.00
4:58 am 04:58 Clear 49 9.6 22 -5.6 34 34 WNW 8 13 29.85 1011 10 16 0.00 0.00
5:58 am 05:58 Sunny 49 9.3 22 -5.3 36 36 WNW 6 9 29.85 1011 10 16 0.00 0.00
6:58 am 06:58 Sunny 54 12.4 22 -5.4 29 29 N 3 6 29.86 1011 10 16 0.00 0.00
7:58 am 07:58 Sunny 59 15.1 21 -6.2 23 23 N 8 13 29.85 1011 10 16 0.00 0.00
8:58 am 08:58 Mostly Cloudy 61 16.2 19 -7.2 19 19 NNE 8 13 29.87 1011 10 16 0.00 0.00
9:58 am 09:58 Mostly Cloudy 62 16.4 19 -7.4 19 19 Calm 29.87 1011 10 16 0.00 0.00
10:58 am 10:58 Mostly Sunny 65 18.4 19 -7.3 17 17 E 8 13 29.85 1011 10 16 0.00 0.00
11:58 am 11:58 Sunny 65 18.6 16 -8.8 15 15 NNE 3 6 29.84 1011 10 16 0.00 0.00
12:58 pm 12:58 Sunny 68 20.2 20 -6.8 16 16 E 8 13 29.79 1009 10 16 0.00 0.00
1:58 pm 13:58 Mostly Sunny 67 19.5 17 -8.2 15 15 S 8 13 29.78 1009 10 16 0.00 0.00
2:58 pm 14:58 Mostly Cloudy 66 19.1 17 -8.3 15 15 Calm 29.79 1009 10 16 0.00 0.00
3:58 pm 15:58 Mostly Cloudy 66 18.9 19 -7 17 17 SSW 9 15 29.79 1009 10 16 0.00 0.00
4:58 pm 16:58 Partly Cloudy 66 19 21 -6.2 18 18 ENE 3 6 29.79 1009 10 16 0.00 0.00
5:58 pm 17:58 Mostly Sunny 65 18.3 20 -6.5 18 18 S 8 13 29.79 1009 10 16 0.00 0.00
6:58 pm 18:58 Mostly Cloudy 64 17.6 23 -4.8 21 21 NW 7 11 29.78 1008 10 16 0.00 0.00
7:58 pm 19:58 Mostly Cloudy 63 17 23 -4.8 22 22 N 6 9 29.78 1009 10 16 0.00 0.00
8:58 pm 20:58 Mostly Clear 62 16.4 22 -5.8 21 21 Calm 29.80 1009 10 16 0.00 0.00
9:58 pm 21:58 Mostly Cloudy 59 15.1 24 -4.5 26 26 Calm 29.83 1010 10 16 0.00 0.00
10:58 pm 22:58 Mostly Cloudy 59 14.8 25 -3.8 28 28 SW 3 6 29.82 1010 10 16 0.00 0.00
11:58 pm 23:58 Mostly Cloudy 58 14.2 25 -3.7 29 29 SW 3 6 29.83 1010 10 16 0.00 0.00

Powered by AerisWeather